Starlink 11364

operational
NORAD ID: 61543 Int'l Des: 2024-184 Owner: SPXS Country: US Constellation: starlink
LEOCIRCULAR

Über Starlink 11364

Beschreibung wird geladen...

Live-Position

3D-Globus wird geladen...

Nächste Überflüge

Höhenverlauf

Altitude vs Time

uPlot chart will show altitude changes over time

Zweizeiliger Elementsatz

1 61543U 24184M 25259.61159811 -.00002048 00000-0 -12071-4 0 9994
2 61543 53.1578 14.6042 0000772 83.2245 276.8861 15.69681491 53070
Epoch: 16. Sept. 2025 • Age: 35 hours

Aktueller Status

Höhe 378.4 km
Geschwindigkeit 7.68 km/s
Subsatellitenpunkt -52.25°S, 116.59°W
Startdatum 15. Okt. 2024
Alter 0.9 years
Typ internet

Technische Details

Klassifizierung Payload
Masse 960.00 kg
Trockenmasse 910.00 kg
Gesamtmasse 960.00 kg
Länge 0.30 m
Durchmesser 4.10 m
Spannweite 29.00 m
Form Box + pan
Hersteller SPXS
Bus-Typ Starlink V2MD
Phasenstatus In Orbit
Besitzer/Staat SPXS/US

Große Konstellationen

Loading constellations...